Regional Weather Roundup
Issued by NWS Raleigh/Durham, NC

Home | Current Version | Previous Version | Text Only | Print | Product List | Glossary On
Versions: 1 2 3 4 5 6 7 8 9 10 11 12 13 14 15 16 17 18 19 20 21 22 23 24 25 26 27 28 29 30 31 32 33 34 35 36 37 38 39 40 41 42 43 44 45 46 47 48 49 50
000
ASUS42 KRAH 300010
RWRRAH
NORTH CAROLINA WEATHER ROUNDUP
NATIONAL WEATHER SERVICE RALEIGH NC
800 PM EDT FRI MAY 29 2015

NOTE: "FAIR" INDICATES FEW OR NO CLOUDS BELOW 12,000 FEET WITH NO
SIGNIFICANT WEATHER AND/OR OBSTRUCTIONS TO VISIBILITY.

NCZ001-053-055-056-065-067-300100-
WESTERN NORTH CAROLINA

CITY           SKY/WX    TMP DP  RH WIND       PRES   REMARKS
ASHEVILLE      CLOUDY    73  61  65 S5        30.23R
JEFFERSON      MOCLDY    68  58  68 CALM      30.27S
MORGANTON      CLEAR     74  66  75 CALM      30.23S
HICKORY        MOCLDY    80  66  62 CALM      30.17S
RUTHERFORDTON  PTCLDY    78  71  80 CALM      30.18S
MOUNT AIRY       N/A     71  68  91 CALM      30.22S
BOONE          PTCLDY    68  60  75 SW5       30.29S
$$

NCZ021-022-025-041-071-084-088-300100-
CENTRAL NORTH CAROLINA

CITY           SKY/WX    TMP DP  RH WIND       PRES   REMARKS
CHARLOTTE      PTCLDY    82  58  43 S7        30.16R
GREENSBORO     MOCLDY    76  66  71 NW7       30.17R
WINSTON-SALEM  PTCLDY    71  67  87 CALM      30.19R
RALEIGH-DURHAM PTCLDY    81  55  40 SE5       30.17S
FORT BRAGG     CLEAR     84  60  44 SE7       30.15S
FAYETTEVILLE   PTCLDY    83  63  50 SE7       30.15S
BURLINGTON     CLEAR     81  63  54 SE5       30.17R
LAURINBURG     CLEAR     84  56  38 S5        30.16S
$$

NCZ011-015-027-028-043-044-047-080-103-300100-
NORTHEASTERN NORTH CAROLINA

CITY           SKY/WX    TMP DP  RH WIND       PRES   REMARKS
ROCKY MT-WILSO PTCLDY    82  65  56 SE6       30.17S
GREENVILLE     PTCLDY    81  66  61 S6        30.20R
WASHINGTON     CLEAR     76  68  74 SE9       30.20S
ELIZABETH CITY CLEAR     75  67  76 E12       30.22R
MANTEO         CLEAR     74  69  85 SE7       30.22F
CAPE HATTERAS  CLEAR     76  66  71 SE7       30.22S
$$

NCZ078-087-090-091-093-098-101-300100-
SOUTHEASTERN NORTH CAROLINA

CITY           SKY/WX    TMP DP  RH WIND       PRES   REMARKS
LUMBERTON      CLEAR     82  64  54 SE9       30.15S
GOLDSBORO      NOT AVBL
KINSTON        CLEAR     79  66  65 SE8       30.19R
KENANSVILLE    CLEAR     78  64  62 SE6       30.19R
NEW BERN       MOCLDY    76  69  79 SW5       30.21R
CHERRY POINT   PTCLDY    76  67  73 SE7       30.21R
BEAUFORT       CLEAR     76  67  73 SE6       30.20S
JACKSONVILLE   PTCLDY    76  67  73 SE7       30.19S
WILMINGTON     CLOUDY    77  68  73 E8        30.19R
$$



USA.gov is the U.S. government's official web portal to all federal, state and local government web resources and services.